[[{"header":{"parameterUnit":"m.s-1","parameterCategory":2,"la1":30.2991,"la2":30.254,"lo1":-89.0895,"lo2":-89.0444,"dy":0.0017,"dx":0.0017,"nx":28,"ny":28,"refTime":"2023-08-27T21:00:00:Z","depth":"0","parameterNumber":2,"parameterNumberName":"U-component_of_CURRENTS"},"data":[0,0,0,0,0,0,0,0,0,0,0,0,0,0,0,0,0,0,0,0,0,0,0,0,0,0,0,0,0,0,0,0,0,0,0,0,0,0,0,0,0,0,0,0,0,0,0,0,0,0,0,0,0,0,0,0,0,0,0.3926,0.3926,0,0.3973,0.3974,0.3974,0.3967,0.3967,0.3966,0.3965,0.3967,0.3968,0.3969,0,0,0,0,0,0,0,0,0,0,0,0,0,0.3817,0.3819,0.3926,0.3926,0.3927,0.3973,0.3974,0.3974,0.3968,0.3967,0.3966,0.3965,0.3967,0.3968,0.3969,0,0,0,0,0,0,0,0,0,0,0,0,0,0.3863,0.3819,0.3925,0.393,0.3931,0.3973,0.3974,0.3975,0.3968,0.3967,0.3966,0.3965,0.3967,0.3968,0.3969,0.3997,0,0,0.3972,0.3973,0,0,0,0,0,0,0,0,0.3861,0.3867,0.3928,0.393,0.3931,0.3964,0.3936,0.398,0.3968,0.3953,0.3965,0.3964,0.3963,0.3964,0.3975,0.3997,0.3997,0.3972,0.3973,0.3973,0.3974,0,0,0,0,0,0,0,0.3857,0.3865,0.3944,0.3929,0.3931,0.3925,0.3931,0.3944,0.3962,0.3954,0.3954,0.3961,0.3963,0.3974,0.3975,0.3997,0.3972,0.3973,0.3974,0.3974,0.4096,0.4099,0,0,0,0,0,0,0.3856,0.3863,0.3942,0.3945,0.3893,0.3928,0.3934,0.3954,0.3963,0.3964,0.3962,0.396,0.3973,0.3974,0.3975,0.4046,0.3973,0.3974,0.3975,0.4094,0.4097,0.4099,0,0,0,0,0,0,0.3853,0.3863,0.394,0.3904,0.3914,0.3931,0.3953,0.3955,0.3974,0.3969,0.3969,0.3979,0.3972,0.3974,0.4005,0.4044,0.3975,0.3976,0.409,0.4094,0.4098,0.4163,0,0,0,0,0,0,0.385,0.3862,0.3878,0.3905,0.3916,0.3964,0.3954,0.3957,0.398,0.3978,0.3984,0.3983,0.3972,0.4003,0.4006,0.4044,0.3977,0.4087,0.4092,0.4097,0.4158,0.4169,0.4179,0,0,0,0,0,0.3846,0.3859,0.3879,0.3888,0.3937,0.3965,0.397,0.3977,0.3982,0.399,0.4007,0.3983,0.4036,0.4006,0.4009,0.4048,0.4085,0.4091,0.4096,0.4153,0.4167,0.4178,0,0,0,0,0,0,0.3806,0.3861,0.3882,0.3909,0.394,0.3964,0.3968,0.3989,0.4012,0.4008,0.401,0.4011,0.4057,0.4049,0.4016,0.4102,0.406,0.4066,0.4102,0.4115,0.4125,0.414,0.3978,0,0,0,0,0,0.3812,0.3842,0.3889,0.3908,0.3924,0.3955,0.397,0.3982,0.4004,0.4013,0.4021,0.4042,0.4085,0.4094,0.4115,0.4155,0.4189,0.4187,0.4197,0.4205,0.4223,0.4316,0.4337,0.4119,0.4118,0.4118,0,0,0.3799,0.3834,0.3849,0.3903,0.3923,0.3964,0.396,0.3981,0.4024,0.401,0.4054,0.4075,0.4106,0.4156,0.4176,0.415,0.4289,0.4213,0.422,0.4233,0.4325,0.4346,0.4365,0.4122,0.4122,0.4121,0,0,0.3788,0.3822,0.3849,0.3886,0.393,0.3959,0.3972,0.401,0.403,0.4085,0.4099,0.415,0.4186,0.4227,0.4255,0.4339,0.4344,0.434,0.4398,0.4489,0.4507,0.4524,0.4604,0.4627,0.434,0.434,0.434,0,0.3776,0.3827,0.3856,0.3898,0.394,0.3964,0.4014,0.4043,0.4087,0.4126,0.4102,0.4218,0.4232,0.4335,0.4366,0.4363,0.4409,0.4343,0.4502,0.4519,0.4535,0.4613,0.4638,0.4344,0.4344,0.4343,0.4343,0,0.3798,0.3847,0.3858,0.3939,0.3982,0.4018,0.4078,0.4119,0.4152,0.4193,0.4284,0.4311,0.4383,0.4402,0.4412,0.4538,0.4533,0.4506,0.4467,0.4561,0.4637,0.4662,0.435,0.4348,0.4347,0.4346,0,0,0.3763,0.3861,0.3869,0.3927,0.4015,0.4054,0.4134,0.4226,0.4298,0.4329,0.4433,0.4501,0.451,0.4544,0.4557,0.4634,0.4789,0.4621,0.4624,0.4694,0.4995,0.4894,0.4911,0.4788,0.4793,0.4796,0.5006,0,0.3782,0.3869,0.3921,0.4018,0.4077,0.4148,0.4228,0.4313,0.4379,0.4475,0.4525,0.461,0.4564,0.4609,0.4679,0.4783,0.4857,0.4735,0.4899,0.4904,0.4797,0.4937,0.4683,0.484,0.503,0.5034,0.5037,0,0.3797,0.3867,0.3961,0.4094,0.4126,0.4189,0.4343,0.4417,0.4552,0.4605,0.4686,0.4719,0.4851,0.4783,0.498,0.4906,0.4957,0.5011,0.502,0.4919,0.4849,0.4776,0.4878,0.4746,0.5075,0.5072,0.5069,0,0.3775,0.3896,0.3978,0.4024,0.4171,0.4239,0.432,0.4458,0.4532,0.4692,0.4763,0.4889,0.4968,0.5065,0.5145,0.5092,0.5354,0.5292,0.5241,0.5234,0.5049,0.5017,0.5032,0.5422,0.5421,0.5421,0.542,0,0.3786,0.3853,0.3974,0.4026,0.4139,0.4243,0.4364,0.4468,0.4611,0.4714,0.4812,0.4905,0.5044,0.5176,0.5231,0.5326,0.5421,0.5294,0.5298,0.5063,0.5032,0.4928,0.4864,0.5428,0.5427,0.5425,0.5424,0,0.3753,0.3826,0.3931,0.4083,0.4129,0.4214,0.4362,0.4451,0.459,0.4737,0.479,0.4974,0.5161,0.5273,0.5472,0.5429,0.5381,0.5526,0.5236,0.5199,0.4983,0.4932,0.4838,0.4701,0.5528,0.5527,0.5526,0,0.3745,0.3795,0.3947,0.4009,0.4079,0.4198,0.428,0.4426,0.4521,0.4758,0.4834,0.5046,0.5161,0.5407,0.5423,0.5524,0.5361,0.5307,0.5144,0.4975,0.4923,0.4756,0.4635,0.4942,0.4936,0.4931,0.4928,0,0.3751,0.3797,0.389,0.4003,0.4093,0.4181,0.4308,0.4361,0.4547,0.4649,0.4821,0.4932,0.5153,0.5137,0.5247,0.5262,0.5029,0.5213,0.5122,0.4546,0.4285,0.4149,0.4807,0.4887,0.4891,0.4894,0.4896,0.4898,0.3754,0.3811,0.392,0.4008,0.4091,0.4152,0.4158,0.4284,0.4374,0.4478,0.4696,0.4757,0.4843,0.4959,0.494,0.4742,0.4776,0.4572,0.4557,0.4432,0.4175,0.4741,0.4758,0.4761,0.4763,0.4766,0.4768,0,0.3773,0.3832,0.3918,0.4001,0.4022,0.4092,0.416,0.4121,0.4133,0.4285,0.4375,0.4404,0.4375,0.4411,0.4305,0.4113,0.3923,0.3996,0.3701,0.3641,0.4226,0.4071,0.3835,0.3835,0.3835,0.3835,0.3835,0.3835,0.3799,0.3867,0.389,0.3902,0.3932,0.3875,0.386,0.3819,0.3857,0.38,0.3773,0.3863,0.3997,0.398,0.3778,0.3679,0.3394,0.3209,0.327,0.3672,0.3723,0.3772,0.3613,0.3284,0.3283,0.2496,0.249,0.2485]},{"header":{"parameterUnit":"m.s-1","parameterCategory":2,"la1":30.2991,"la2":30.254,"lo1":-89.0895,"lo2":-89.0444,"dy":0.0017,"dx":0.0017,"nx":28,"ny":28,"refTime":"2023-08-27T21:00:00:Z","depth":"0","parameterNumber":3,"parameterNumberName":"V-component_of_CURRENTS"},"data":[0,0,0,0,0,0,0,0,0,0,0,0,0,0,0,0,0,0,0,0,0,0,0,0,0,0,0,0,0,0,0,0,0,0,0,0,0,0,0,0,0,0,0,0,0,0,0,0,0,0,0,0,0,0,0,0,0,0,0.0275,0.0274,0,0.0207,0.0206,0.0205,0.0154,0.0154,0.0154,0.0154,0.0058,0.0056,0.0054,0,0,0,0,0,0,0,0,0,0,0,0,0,0.0289,0.0289,0.0275,0.0274,0.0274,0.0207,0.0206,0.0205,0.0154,0.0154,0.0154,0.0154,0.0059,0.0056,0.0054,0,0,0,0,0,0,0,0,0,0,0,0,0,0.0256,0.0289,0.0275,0.0242,0.0239,0.0208,0.0206,0.0205,0.0154,0.0154,0.0154,0.0154,0.006,0.0057,0.0053,0.0037,0,0,0.0042,0.0041,0,0,0,0,0,0,0,0,0.0258,0.0255,0.0248,0.0245,0.0241,0.0191,0.0176,0.0148,0.0155,0.0184,0.0154,0.0153,0.0102,0.0095,0.008,0.0033,0.0029,0.0042,0.004,0.0038,0.0037,0,0,0,0,0,0,0,0.026,0.0257,0.0245,0.0247,0.0243,0.0207,0.0202,0.017,0.0143,0.0181,0.0178,0.0175,0.01,0.0083,0.0077,0.0027,0.0042,0.0039,0.0037,0.0035,-0.0023,-0.0023,0,0,0,0,0,0,0.0278,0.026,0.0247,0.0243,0.0252,0.0208,0.0202,0.0205,0.0144,0.0135,0.0175,0.0173,0.0089,0.0081,0.0073,0.0084,0.0038,0.0035,0.0033,-0.0024,-0.0023,-0.0023,0,0,0,0,0,0,0.0279,0.0278,0.025,0.0252,0.0246,0.0209,0.0212,0.0204,0.0194,0.014,0.013,0.0175,0.0089,0.0078,0.0054,0.0079,0.0034,0.003,-0.0024,-0.0024,-0.0023,0.0084,0,0,0,0,0,0,0.028,0.0279,0.0287,0.0253,0.0247,0.0247,0.0212,0.0203,0.0194,0.019,0.0136,0.0127,0.0088,0.0059,0.005,0.0073,0.0028,-0.0025,-0.0024,-0.0023,0.0079,0.0088,0.0095,0,0,0,0,0,0.0281,0.03,0.0288,0.0287,0.026,0.0248,0.0242,0.0211,0.0195,0.0199,0.0159,0.0129,0.0059,0.0057,0.0046,0.0068,-0.0026,-0.0024,-0.0023,0.0076,0.0086,0.0095,0,0,0,0,0,0,0.0309,0.0296,0.0282,0.0296,0.028,0.0241,0.0242,0.0221,0.0192,0.0189,0.0133,0.0121,0.0107,0.0071,0.0069,0.0053,0.0013,0.0012,0.0092,0.0101,0.0109,0.0153,0.0025,0,0,0,0,0,0.0321,0.0332,0.0309,0.032,0.0316,0.028,0.0271,0.0254,0.0225,0.0212,0.0172,0.0132,0.0102,0.009,0.0053,0.0046,0.0032,0.0053,0.0061,0.0068,0.0095,0.0094,0.0105,-0.0018,-0.0018,-0.0018,0,0,0.0334,0.0329,0.0334,0.0327,0.0309,0.0317,0.0274,0.0273,0.028,0.0206,0.02,0.0156,0.0104,0.0095,0.0086,0.0071,0.0093,0.0069,0.0076,0.01,0.0096,0.0109,0.012,-0.0018,-0.0018,-0.0018,0,0,0.0371,0.0363,0.0385,0.0378,0.0367,0.035,0.0356,0.0326,0.0315,0.03,0.0253,0.0231,0.0175,0.0155,0.0135,0.0166,0.0131,0.0147,0.0231,0.0229,0.024,0.025,0.0245,0.0254,0.0157,0.0158,0.0158,0,0.0389,0.0413,0.0389,0.0407,0.0413,0.0372,0.04,0.0382,0.0348,0.0357,0.0313,0.0262,0.0209,0.0222,0.0227,0.0188,0.018,0.0201,0.0243,0.0252,0.026,0.0253,0.0261,0.0163,0.0162,0.0162,0.0161,0,0.0438,0.0458,0.0471,0.0484,0.0486,0.0504,0.0484,0.0486,0.0462,0.0449,0.0449,0.0376,0.0353,0.0329,0.0283,0.0319,0.0293,0.0251,0.0227,0.028,0.0268,0.0274,0.0171,0.0169,0.0167,0.0166,0,0,0.0485,0.0505,0.0512,0.0543,0.0533,0.0553,0.0567,0.0589,0.0636,0.0576,0.063,0.0551,0.0519,0.0494,0.0437,0.0436,0.0465,0.0377,0.0375,0.039,0.047,0.0434,0.0437,0.0435,0.0436,0.0438,0.0439,0,0.0535,0.0601,0.0589,0.0656,0.0692,0.0669,0.0702,0.0714,0.0711,0.075,0.0688,0.0707,0.058,0.0589,0.0556,0.0507,0.0488,0.047,0.0403,0.0402,0.0377,0.0445,0.0405,0.0401,0.0445,0.0446,0.0446,0,0.0588,0.0633,0.0711,0.0775,0.0791,0.0828,0.0901,0.0925,0.0954,0.0955,0.0942,0.0896,0.0882,0.0768,0.0688,0.0685,0.0583,0.0527,0.0524,0.0466,0.0379,0.0354,0.0411,0.019,0.0456,0.0455,0.0454,0,0.0656,0.0719,0.0797,0.0813,0.0874,0.0922,0.096,0.1001,0.1066,0.1108,0.1171,0.1101,0.112,0.0979,0.0824,0.0767,0.0753,0.065,0.0516,0.0512,0.0453,0.0441,0.0306,0.0589,0.0589,0.0589,0.0589,0,0.0719,0.0786,0.0847,0.0896,0.1019,0.1023,0.1156,0.1182,0.1262,0.1385,0.1294,0.1385,0.118,0.1128,0.0925,0.0766,0.0815,0.0562,0.0523,0.0486,0.0478,0.0261,0.0145,0.0589,0.0589,0.0589,0.0589,0,0.079,0.0817,0.0924,0.1016,0.1057,0.1154,0.1287,0.1387,0.1447,0.1609,0.1641,0.1638,0.1583,0.1363,0.1187,0.0939,0.0639,0.0685,0.0657,0.0615,0.024,0.0133,-0.0013,-0.01,0.0527,0.0527,0.0526,0,0.0837,0.0897,0.1025,0.1107,0.1161,0.1296,0.1398,0.1476,0.1593,0.1778,0.1878,0.1895,0.1926,0.165,0.1249,0.091,0.0678,0.0611,0.0471,0.0246,0.0098,0.0013,-0.0056,0.0429,0.0428,0.0427,0.0426,0,0.0939,0.0979,0.107,0.123,0.1354,0.1499,0.1652,0.1772,0.1899,0.2057,0.226,0.2318,0.207,0.1736,0.1263,0.0989,0.0446,0.0576,0.0354,0.0036,-0.0074,-0.0184,0.0396,0.0416,0.0417,0.0418,0.0419,0.0419,0.1019,0.1101,0.1211,0.1362,0.1507,0.1688,0.1821,0.1999,0.2219,0.2471,0.2516,0.2634,0.2119,0.1485,0.1123,0.0371,0.039,0.0088,-0.0013,-0.007,-0.0185,0.0381,0.0346,0.0346,0.0347,0.0347,0.0348,0,0.1103,0.119,0.1336,0.1515,0.1679,0.1739,0.198,0.2131,0.2399,0.2634,0.2809,0.2588,0.1972,0.1324,0.0326,-0.016,-0.0329,-0.0415,-0.0566,-0.0601,-0.0093,-0.0132,-0.0284,-0.0284,-0.0283,-0.0283,-0.0283,-0.0283,0.115,0.1281,0.1346,0.1615,0.1755,0.197,0.2108,0.2356,0.2551,0.2807,0.2857,0.2866,0.2292,0.065,-0.0474,-0.0718,-0.0999,-0.1076,-0.1187,-0.0888,-0.085,-0.0814,-0.0879,-0.1185,-0.1186,-0.1668,-0.1673,-0.1677]}],[{"header":{"parameterUnit":"m.s-1","parameterCategory":2,"la1":30.2991,"la2":30.254,"lo1":-89.0895,"lo2":-89.0444,"dy":0.0017,"dx":0.0017,"nx":28,"ny":28,"refTime":"2023-08-27T21:00:00:Z","depth":"2","parameterNumber":2,"parameterNumberName":"U-component_of_CURRENTS"},"data":[0,0,0,0,0,0,0,0,0,0,0,0,0,0,0,0,0,0,0,0,0,0,0,0,0,0,0,0,0,0,0,0,0,0,0,0,0,0,0,0,0,0,0,0,0,0,0,0,0,0,0,0,0,0,0,0,0,0,0.3023,0.3023,0,0.3059,0.306,0.306,0.3061,0.306,0.306,0.3059,0.3095,0.3096,0.3098,0,0,0,0,0,0,0,0,0,0,0,0,0,0.2946,0.2947,0.3023,0.3023,0.3024,0.3059,0.306,0.306,0.3061,0.306,0.306,0.3059,0.3094,0.3096,0.3098,0,0,0,0,0,0,0,0,0,0,0,0,0,0.2981,0.2948,0.3023,0.3028,0.3029,0.3059,0.306,0.3061,0.3061,0.306,0.306,0.3059,0.3094,0.3096,0.3098,0.3125,0,0,0.3104,0.3105,0,0,0,0,0,0,0,0,0.2979,0.2984,0.3027,0.3028,0.3029,0.3055,0.3046,0.3082,0.3061,0.3049,0.3059,0.3059,0.3082,0.3085,0.3094,0.3127,0.3129,0.3104,0.3106,0.3107,0.3107,0,0,0,0,0,0,0,0.2976,0.2982,0.3038,0.3027,0.3028,0.3026,0.303,0.3053,0.3069,0.305,0.305,0.3054,0.3082,0.3092,0.3094,0.3129,0.3104,0.3106,0.3108,0.3108,0.3234,0.3236,0,0,0,0,0,0,0.2973,0.298,0.3036,0.3039,0.3001,0.3028,0.3033,0.3047,0.3069,0.3072,0.3055,0.3054,0.3088,0.3092,0.3096,0.3166,0.3107,0.3109,0.311,0.3232,0.3234,0.3236,0,0,0,0,0,0,0.2971,0.2978,0.3035,0.3009,0.3016,0.303,0.3046,0.3048,0.3072,0.3072,0.3075,0.3077,0.3088,0.3093,0.3134,0.3165,0.311,0.3111,0.3229,0.3232,0.3235,0.3282,0,0,0,0,0,0,0.2969,0.2977,0.2996,0.3009,0.3017,0.3059,0.3047,0.305,0.3074,0.3074,0.3093,0.3094,0.3088,0.3131,0.3136,0.3167,0.3113,0.3226,0.3231,0.3234,0.3278,0.3287,0.3294,0,0,0,0,0,0.2966,0.2977,0.2997,0.3004,0.304,0.3059,0.3064,0.3071,0.3076,0.309,0.3109,0.3094,0.3159,0.3134,0.314,0.3172,0.3225,0.3229,0.3234,0.3274,0.3285,0.3294,0,0,0,0,0,0,0.2937,0.2979,0.3001,0.3021,0.3048,0.3059,0.3071,0.3086,0.3113,0.3122,0.3121,0.3124,0.3177,0.3173,0.3145,0.3222,0.319,0.3196,0.3219,0.3229,0.3237,0.3261,0.3115,0,0,0,0,0,0.2947,0.298,0.3009,0.3031,0.3044,0.3069,0.3082,0.3097,0.3117,0.3129,0.3138,0.3162,0.32,0.3211,0.3238,0.3276,0.3314,0.3303,0.3311,0.3317,0.3343,0.3452,0.3472,0.3252,0.3252,0.3251,0,0,0.2946,0.2971,0.2991,0.303,0.3051,0.3078,0.3075,0.3105,0.3135,0.313,0.3169,0.3195,0.3221,0.3267,0.3289,0.3264,0.3394,0.3323,0.3328,0.3351,0.3459,0.348,0.35,0.3255,0.3254,0.3254,0,0,0.2949,0.2981,0.301,0.3036,0.3079,0.3095,0.311,0.3139,0.3159,0.321,0.322,0.3271,0.3306,0.3333,0.3354,0.3426,0.3441,0.3429,0.3478,0.3583,0.3602,0.362,0.3667,0.3689,0.3422,0.3422,0.3422,0,0.295,0.2984,0.3019,0.3048,0.3074,0.3106,0.3138,0.3165,0.3205,0.3244,0.3229,0.3338,0.3346,0.3429,0.3449,0.3445,0.3493,0.3434,0.3594,0.3613,0.363,0.3675,0.3698,0.3425,0.3424,0.3424,0.3424,0,0.2971,0.3005,0.3017,0.3076,0.3113,0.3139,0.3186,0.3221,0.3255,0.3301,0.3396,0.3422,0.3499,0.3496,0.3494,0.3616,0.3604,0.3599,0.3569,0.3655,0.3696,0.372,0.3429,0.3428,0.3427,0.3426,0,0,0.2954,0.3021,0.3026,0.3065,0.313,0.3161,0.3219,0.3292,0.3365,0.3407,0.3513,0.3563,0.3613,0.3641,0.3649,0.3711,0.385,0.3708,0.3712,0.3752,0.4061,0.3898,0.3907,0.3884,0.3889,0.3893,0.403,0,0.296,0.3021,0.3049,0.3112,0.3157,0.3204,0.3266,0.335,0.3426,0.3532,0.3595,0.3702,0.3659,0.372,0.3785,0.3854,0.392,0.3812,0.3975,0.3979,0.3823,0.3933,0.3623,0.3708,0.4053,0.4057,0.406,0,0.2967,0.3018,0.3076,0.3169,0.319,0.3232,0.336,0.3423,0.3578,0.3651,0.3771,0.3842,0.3962,0.3916,0.4078,0.4018,0.4059,0.4081,0.4087,0.3942,0.3862,0.3685,0.3737,0.4099,0.4095,0.4093,0.409,0,0.2956,0.3031,0.3078,0.3106,0.3213,0.3255,0.3324,0.3474,0.3554,0.3755,0.3857,0.4006,0.4108,0.4194,0.4224,0.4197,0.4377,0.435,0.4232,0.4218,0.399,0.3947,0.4485,0.4485,0.4485,0.4485,0.4484,0,0.2942,0.2983,0.308,0.3103,0.319,0.3283,0.3401,0.3488,0.3662,0.3787,0.3935,0.4038,0.4194,0.4293,0.4308,0.4328,0.4458,0.4273,0.4266,0.399,0.3948,0.4314,0.4292,0.449,0.4489,0.4488,0.4487,0,0.2906,0.2959,0.3026,0.314,0.3179,0.3254,0.3409,0.3499,0.3678,0.385,0.3924,0.4123,0.426,0.4345,0.4487,0.4423,0.4456,0.4421,0.4051,0.3996,0.421,0.419,0.4356,0.4352,0.4349,0.4346,0.4344,0,0.2887,0.2918,0.3033,0.3066,0.3104,0.323,0.3307,0.3488,0.3581,0.3858,0.3917,0.4134,0.4211,0.433,0.4302,0.4319,0.4404,0.4008,0.3897,0.4233,0.421,0.4194,0.4179,0.361,0.3602,0.3595,0.359,0,0.2854,0.2889,0.294,0.3018,0.3086,0.3164,0.3287,0.3361,0.3581,0.3701,0.385,0.3942,0.4096,0.3962,0.398,0.3936,0.3982,0.3869,0.438,0.3666,0.3534,0.3509,0.3518,0.353,0.3536,0.354,0.3544,0.3546,0.2826,0.2851,0.2909,0.2956,0.3048,0.3088,0.3071,0.3197,0.3294,0.3412,0.3613,0.363,0.3694,0.356,0.345,0.3399,0.3672,0.3508,0.3528,0.3555,0.342,0.3287,0.3209,0.3213,0.3216,0.3219,0.3222,0,0.2772,0.2804,0.284,0.2875,0.2877,0.2967,0.3033,0.297,0.2983,0.3138,0.3201,0.2983,0.2897,0.2983,0.2815,0.2798,0.2775,0.2687,0.2635,0.2698,0.2753,0.2575,0.2141,0.2138,0.2134,0.2131,0,0,0.2763,0.2744,0.274,0.2691,0.2707,0.2626,0.2611,0.2567,0.2615,0.2565,0.2554,0.2754,0.2895,0.2472,0.242,0.2254,0.2454,0.2171,0.3047,0.3051,0.3102,0.3247,0.3045,0,0,0,0,0]},{"header":{"parameterUnit":"m.s-1","parameterCategory":2,"la1":30.2991,"la2":30.254,"lo1":-89.0895,"lo2":-89.0444,"dy":0.0017,"dx":0.0017,"nx":28,"ny":28,"refTime":"2023-08-27T21:00:00:Z","depth":"2","parameterNumber":3,"parameterNumberName":"V-component_of_CURRENTS"},"data":[0,0,0,0,0,0,0,0,0,0,0,0,0,0,0,0,0,0,0,0,0,0,0,0,0,0,0,0,0,0,0,0,0,0,0,0,0,0,0,0,0,0,0,0,0,0,0,0,0,0,0,0,0,0,0,0,0,0,0.0053,0.0053,0,-0.0007,-0.0008,-0.0009,-0.0055,-0.0055,-0.0055,-0.0055,-0.0138,-0.014,-0.0142,0,0,0,0,0,0,0,0,0,0,0,0,0,0.0059,0.006,0.0053,0.0053,0.0052,-0.0007,-0.0008,-0.0009,-0.0055,-0.0055,-0.0055,-0.0055,-0.0137,-0.014,-0.0142,0,0,0,0,0,0,0,0,0,0,0,0,0,0.0032,0.006,0.0053,0.0024,0.0021,-0.0007,-0.0008,-0.0009,-0.0055,-0.0055,-0.0055,-0.0056,-0.0136,-0.0139,-0.0142,-0.0153,0,0,-0.0151,-0.0153,0,0,0,0,0,0,0,0,0.0034,0.0032,0.0029,0.0026,0.0022,-0.0022,-0.0036,-0.0058,-0.0054,-0.0028,-0.0055,-0.0056,-0.01,-0.0106,-0.0119,-0.0157,-0.016,-0.0152,-0.0153,-0.0155,-0.0155,0,0,0,0,0,0,0,0.0036,0.0034,0.0028,0.0028,0.0024,-0.0011,-0.0014,-0.0041,-0.0063,-0.003,-0.0033,-0.0037,-0.0102,-0.0116,-0.0121,-0.0162,-0.0151,-0.0154,-0.0156,-0.0157,-0.0213,-0.0212,0,0,0,0,0,0,0.0051,0.0036,0.0029,0.0026,0.0029,-0.001,-0.0014,-0.0009,-0.0062,-0.007,-0.0037,-0.0039,-0.011,-0.0117,-0.0124,-0.0121,-0.0155,-0.0157,-0.0159,-0.0213,-0.0213,-0.0212,0,0,0,0,0,0,0.0052,0.0052,0.0032,0.003,0.0026,-0.0009,-0.0003,-0.001,-0.0019,-0.0066,-0.0075,-0.0037,-0.0111,-0.012,-0.0141,-0.0125,-0.0159,-0.0161,-0.0213,-0.0213,-0.0212,-0.0127,0,0,0,0,0,0,0.0052,0.0052,0.0061,0.0032,0.0026,0.0026,-0.0003,-0.0011,-0.002,-0.0023,-0.007,-0.0078,-0.0112,-0.0137,-0.0144,-0.013,-0.0164,-0.0214,-0.0213,-0.0213,-0.013,-0.0123,-0.0118,0,0,0,0,0,0.0053,0.0071,0.0062,0.0061,0.004,0.0027,0.0021,-0.0007,-0.0019,-0.0017,-0.005,-0.0077,-0.0139,-0.0139,-0.0148,-0.0134,-0.0214,-0.0213,-0.0213,-0.0133,-0.0125,-0.0118,0,0,0,0,0,0,0.0077,0.0067,0.0057,0.0071,0.0055,0.002,0.0022,0.0002,-0.0023,-0.0024,-0.0072,-0.0083,-0.0097,-0.0129,-0.0127,-0.015,-0.0181,-0.0182,-0.0117,-0.011,-0.0104,-0.0076,-0.0166,0,0,0,0,0,0.0089,0.01,0.0079,0.009,0.0088,0.0057,0.0048,0.0031,0.0005,-0.0006,-0.004,-0.0075,-0.0103,-0.0115,-0.0147,-0.0156,-0.0182,-0.0155,-0.0149,-0.0143,-0.0127,-0.0148,-0.0142,-0.021,-0.021,-0.021,0,0,0.01,0.0097,0.0102,0.0096,0.0083,0.0087,0.0051,0.0049,0.0052,-0.001,-0.0016,-0.0056,-0.0102,-0.0114,-0.0123,-0.0136,-0.014,-0.0142,-0.0137,-0.0124,-0.0147,-0.014,-0.0134,-0.021,-0.021,-0.021,0,0,0.0134,0.013,0.0151,0.0144,0.0134,0.0116,0.012,0.0092,0.0083,0.0069,0.0026,0.0,-0.0044,-0.0071,-0.009,-0.007,-0.0109,-0.0083,-0.0024,-0.0045,-0.0039,-0.0034,-0.0066,-0.0064,-0.0076,-0.0076,-0.0076,0,0.0149,0.0172,0.0154,0.017,0.0173,0.0135,0.0156,0.014,0.0107,0.0112,0.0079,0.0024,-0.0022,-0.0026,-0.0024,-0.0054,-0.0074,-0.0045,-0.0035,-0.003,-0.0027,-0.006,-0.006,-0.0072,-0.0073,-0.0073,-0.0073,0,0.0193,0.021,0.0224,0.0234,0.0234,0.0245,0.0226,0.0226,0.0205,0.0188,0.0178,0.0112,0.0087,0.0059,0.0022,0.0029,0.0002,-0.0025,-0.0046,-0.0014,-0.0053,-0.0053,-0.0066,-0.0068,-0.0069,-0.007,0,0,0.0231,0.0252,0.0258,0.0282,0.0271,0.0284,0.0296,0.0305,0.0338,0.0283,0.0314,0.0241,0.0213,0.0189,0.0136,0.0107,0.0099,0.006,0.0057,0.0041,0.0051,-0.0008,-0.0016,0.0079,0.008,0.008,0.0011,0,0.0272,0.0328,0.032,0.0369,0.0398,0.0376,0.0401,0.0404,0.0397,0.0416,0.0351,0.0354,0.0262,0.0263,0.0217,0.0137,0.0102,0.012,0.0012,0.0009,-0.0038,-0.0016,0.0024,-0.0037,0.001,0.001,0.001,0,0.0318,0.0353,0.0414,0.0462,0.0475,0.0496,0.0548,0.0567,0.0577,0.0574,0.0554,0.051,0.0464,0.0383,0.0259,0.0277,0.0176,0.0098,0.0093,0.0011,-0.0052,-0.0062,-0.0041,0.0008,0.0008,0.0008,0.0008,0,0.0369,0.042,0.0479,0.049,0.0533,0.0566,0.0594,0.0621,0.0673,0.0689,0.073,0.0648,0.0637,0.0498,0.0316,0.0303,0.017,0.0132,-0.0022,-0.0028,-0.0028,-0.0035,0.0048,0.0048,0.0048,0.0049,0.0049,0,0.0416,0.0466,0.0514,0.0545,0.0637,0.0643,0.0743,0.076,0.0815,0.0907,0.0828,0.0864,0.067,0.0564,0.0375,0.017,0.0212,-0.0003,-0.0044,-0.0001,-0.0004,0.0007,0.0003,0.0046,0.0047,0.0047,0.0048,0,0.0464,0.0489,0.0566,0.0631,0.0664,0.0735,0.0844,0.0921,0.0963,0.1082,0.1101,0.1041,0.0908,0.0682,0.0458,0.0267,0.0062,-0.0026,0.0026,-0.0008,-0.0136,-0.0134,-0.0181,-0.0183,-0.0185,-0.0187,-0.0189,0,0.0495,0.0538,0.0636,0.0698,0.0732,0.084,0.0923,0.099,0.1082,0.119,0.1253,0.1174,0.1116,0.0743,0.0408,0.0078,0.0035,-0.0113,-0.0139,-0.0121,-0.0156,-0.0151,-0.0147,-0.0108,-0.0109,-0.011,-0.011,0,0.0552,0.0585,0.065,0.0779,0.0875,0.0997,0.1119,0.1215,0.1323,0.1423,0.1514,0.1477,0.1149,0.0815,0.035,0.0125,-0.0059,-0.0137,-0.0109,-0.0065,-0.0061,-0.0093,-0.0089,-0.0115,-0.0115,-0.0114,-0.0114,-0.0114,0.06,0.0659,0.0746,0.087,0.0988,0.114,0.1254,0.1391,0.1553,0.1702,0.1661,0.1613,0.1249,0.065,0.027,-0.0111,-0.0096,-0.0233,-0.0228,-0.0222,-0.021,-0.0211,-0.0291,-0.0291,-0.0292,-0.0292,-0.0292,0,0.0659,0.0729,0.0836,0.0989,0.1123,0.1177,0.1379,0.1498,0.1694,0.179,0.1842,0.1492,0.111,0.0702,0.0142,-0.0215,-0.022,-0.0324,-0.0241,-0.0233,-0.0227,-0.0213,-0.0296,-0.0297,-0.0298,-0.0299,0,0,0.0695,0.0799,0.085,0.1073,0.1188,0.1377,0.1495,0.1671,0.1781,0.1858,0.1827,0.1709,0.1226,0.0813,0.0347,0.0036,-0.0017,-0.0031,0.001,0.0172,0.0183,-0.014,-0.0106,0,0,0,0,0]}],[{"header":{"parameterUnit":"m.s-1","parameterCategory":2,"la1":30.2991,"la2":30.254,"lo1":-89.0895,"lo2":-89.0444,"dy":0.0017,"dx":0.0017,"nx":28,"ny":28,"refTime":"2023-08-27T21:00:00:Z","depth":"4","parameterNumber":2,"parameterNumberName":"U-component_of_CURRENTS"},"data":[0,0,0,0,0,0,0,0,0,0,0,0,0,0,0,0,0,0,0,0,0,0,0,0,0,0,0,0,0,0,0,0,0,0,0,0,0,0,0,0,0,0,0,0,0,0,0,0,0,0,0,0,0,0,0,0,0,0,0.1654,0.1655,0,0.1745,0.1746,0.1747,0.1809,0.181,0.181,0.1811,0.1881,0.1882,0.1884,0,0,0,0,0,0,0,0,0,0,0,0,0,0.16,0.16,0.1654,0.1655,0.1657,0.1745,0.1746,0.1747,0.1809,0.181,0.1811,0.1811,0.1881,0.1882,0.1884,0,0,0,0,0,0,0,0,0,0,0,0,0,0.1648,0.16,0.1654,0.17,0.1705,0.1745,0.1746,0.1748,0.1809,0.181,0.1811,0.1812,0.188,0.1882,0.1884,0.1874,0,0,0.1889,0.189,0,0,0,0,0,0,0,0,0.1645,0.1649,0.1692,0.1697,0.1703,0.1769,0.1753,0.179,0.1809,0.1767,0.1811,0.1812,0.1843,0.1848,0.1859,0.1877,0.188,0.189,0.1891,0.1892,0.1892,0,0,0,0,0,0,0,0.1641,0.1646,0.1687,0.1693,0.17,0.174,0.1747,0.1761,0.1795,0.177,0.1776,0.179,0.1846,0.1857,0.1861,0.1882,0.189,0.1891,0.1892,0.1893,0.2016,0.2018,0,0,0,0,0,0,0.1631,0.1642,0.1684,0.169,0.1679,0.174,0.1748,0.1745,0.1796,0.1805,0.1789,0.1793,0.1853,0.1859,0.1864,0.1951,0.1892,0.1893,0.1894,0.2014,0.2016,0.2018,0,0,0,0,0,0,0.1629,0.1633,0.1681,0.1672,0.1681,0.174,0.1736,0.1746,0.1803,0.1811,0.182,0.1841,0.1855,0.1861,0.191,0.1951,0.1894,0.1896,0.2011,0.2014,0.2017,0.2065,0,0,0,0,0,0,0.1627,0.1631,0.1649,0.167,0.1682,0.1734,0.1736,0.1747,0.1809,0.1815,0.1857,0.1862,0.1856,0.1907,0.1912,0.1952,0.1897,0.2008,0.2012,0.2016,0.206,0.2069,0.2077,0,0,0,0,0,0.1624,0.1642,0.1649,0.1656,0.1695,0.1736,0.1746,0.1789,0.1811,0.1843,0.1868,0.1863,0.1937,0.191,0.1915,0.1957,0.2006,0.2011,0.2016,0.2057,0.2067,0.2076,0,0,0,0,0,0,0.163,0.165,0.1659,0.1682,0.172,0.1749,0.179,0.1815,0.1862,0.1875,0.1882,0.1889,0.1948,0.195,0.192,0.2007,0.1975,0.1981,0.2004,0.2014,0.2022,0.2026,0.1899,0,0,0,0,0,0.1635,0.1658,0.168,0.1708,0.1726,0.1765,0.1797,0.1822,0.1856,0.1881,0.1905,0.1935,0.1965,0.1988,0.2008,0.2052,0.2068,0.2087,0.2095,0.2102,0.2111,0.2178,0.2193,0.2034,0.2034,0.2034,0,0,0.1649,0.1664,0.168,0.1713,0.1744,0.1767,0.1788,0.1843,0.1872,0.1877,0.1936,0.1964,0.1983,0.2031,0.2059,0.2042,0.2156,0.2108,0.2113,0.2119,0.2185,0.22,0.2214,0.2038,0.2037,0.2037,0,0,0.167,0.1696,0.1715,0.174,0.179,0.1809,0.1833,0.1877,0.1916,0.1967,0.1981,0.2035,0.2079,0.21,0.2115,0.2184,0.2195,0.2204,0.225,0.2315,0.2329,0.2341,0.2376,0.2391,0.221,0.221,0.221,0,0.1687,0.1697,0.1734,0.175,0.1772,0.1827,0.1845,0.189,0.1948,0.199,0.1997,0.2095,0.2109,0.2173,0.2199,0.2201,0.2237,0.2205,0.2325,0.2337,0.2349,0.2382,0.2398,0.2213,0.2212,0.2212,0.2212,0,0.1696,0.172,0.1739,0.1766,0.1801,0.1834,0.1878,0.1935,0.1989,0.2036,0.2133,0.2159,0.2228,0.2241,0.224,0.2335,0.2333,0.2324,0.2295,0.2367,0.2398,0.2414,0.2217,0.2216,0.2215,0.2214,0,0,0.1682,0.1733,0.1741,0.1756,0.1808,0.1835,0.1897,0.197,0.204,0.2111,0.2196,0.2258,0.2313,0.2335,0.2354,0.2403,0.2506,0.2409,0.2411,0.2435,0.265,0.2472,0.2472,0.2531,0.2534,0.2536,0.2636,0,0.1677,0.1699,0.1731,0.1768,0.1779,0.1845,0.1897,0.198,0.2072,0.2172,0.2245,0.2342,0.234,0.2397,0.2448,0.2499,0.2551,0.2479,0.2584,0.2587,0.2413,0.2485,0.2546,0.2647,0.2651,0.2654,0.2655,0,0.1659,0.1675,0.1699,0.1761,0.1776,0.182,0.193,0.1989,0.2141,0.2222,0.2344,0.2422,0.253,0.251,0.2642,0.2607,0.2642,0.2662,0.2666,0.2494,0.2438,0.2564,0.2683,0.2681,0.2679,0.2677,0.2675,0,0.1606,0.1655,0.1677,0.1692,0.1766,0.1819,0.1882,0.202,0.2106,0.2288,0.2377,0.2517,0.261,0.2682,0.275,0.2725,0.2869,0.2833,0.27,0.2687,0.2795,0.2781,0.2924,0.2924,0.2924,0.2924,0.2923,0,0.1563,0.1586,0.1667,0.1675,0.1727,0.1799,0.1907,0.1998,0.2162,0.2271,0.2417,0.2514,0.2668,0.2769,0.2796,0.2796,0.2921,0.2719,0.2708,0.2811,0.2798,0.2805,0.279,0.2927,0.2927,0.2926,0.2925,0,0.1499,0.1547,0.1579,0.1667,0.1704,0.175,0.1913,0.1987,0.2156,0.2301,0.2372,0.2571,0.2689,0.2792,0.2917,0.2844,0.2864,0.2833,0.2943,0.2935,0.2624,0.2611,0.2684,0.2679,0.2675,0.2671,0.2668,0,0.1461,0.147,0.1566,0.1582,0.1633,0.1727,0.1783,0.1968,0.2059,0.2308,0.2353,0.2551,0.2657,0.2681,0.2795,0.2834,0.28,0.2793,0.2692,0.2621,0.2604,0.2598,0.259,0.266,0.2659,0.2658,0.2657,0,0.1375,0.1433,0.1454,0.1495,0.1554,0.1621,0.1734,0.1802,0.201,0.2188,0.2304,0.2387,0.2501,0.2584,0.2642,0.2658,0.2784,0.2745,0.2753,0.2658,0.2593,0.2579,0.2577,0.2641,0.2644,0.2645,0.2646,0,0.132,0.1309,0.1345,0.1377,0.1439,0.1476,0.1567,0.1671,0.1791,0.2077,0.2117,0.2298,0.2485,0.2495,0.2545,0.2552,0.2502,0.2416,0.244,0.2458,0.2336,0.2217,0.2152,0,0,0,0,0,0.1249,0.1212,0.1214,0.1231,0.1298,0.1346,0.1497,0.1601,0.183,0.1858,0.1993,0.209,0.2183,0.2282,0.2241,0.2421,0.2494,0.2362,0.2402,0.2555,0.2573,0.2448,0,0,0,0,0,0,0.1186,0.1177,0.1159,0.1109,0.1111,0.1171,0.1269,0.1422,0.1465,0.1707,0.177,0.1952,0.2068,0.2178,0.2195,0.2224,0.2204,0.2489,0.2483,0.2545,0.2561,0.2576,0.2453,0,0,0,0,0]},{"header":{"parameterUnit":"m.s-1","parameterCategory":2,"la1":30.2991,"la2":30.254,"lo1":-89.0895,"lo2":-89.0444,"dy":0.0017,"dx":0.0017,"nx":28,"ny":28,"refTime":"2023-08-27T21:00:00:Z","depth":"4","parameterNumber":3,"parameterNumberName":"V-component_of_CURRENTS"},"data":[0,0,0,0,0,0,0,0,0,0,0,0,0,0,0,0,0,0,0,0,0,0,0,0,0,0,0,0,0,0,0,0,0,0,0,0,0,0,0,0,0,0,0,0,0,0,0,0,0,0,0,0,0,0,0,0,0,0,0.0053,0.0053,0,0.0014,0.0013,0.0012,-0.002,-0.002,-0.002,-0.002,-0.0077,-0.0078,-0.0079,0,0,0,0,0,0,0,0,0,0,0,0,0,0.0052,0.0052,0.0053,0.0053,0.0053,0.0014,0.0013,0.0012,-0.002,-0.002,-0.002,-0.002,-0.0076,-0.0078,-0.0079,0,0,0,0,0,0,0,0,0,0,0,0,0,0.0035,0.0053,0.0053,0.0033,0.0031,0.0014,0.0013,0.0012,-0.002,-0.002,-0.002,-0.0021,-0.0076,-0.0078,-0.0079,-0.0086,0,0,-0.0086,-0.0086,0,0,0,0,0,0,0,0,0.0036,0.0035,0.0036,0.0034,0.0032,0.0003,-0.0008,-0.0021,-0.002,-0.0002,-0.002,-0.0021,-0.005,-0.0054,-0.0063,-0.0088,-0.0091,-0.0086,-0.0087,-0.0088,-0.0088,0,0,0,0,0,0,0,0.0038,0.0036,0.0036,0.0036,0.0033,0.0009,0.0007,-0.0011,-0.0025,-0.0004,-0.0006,-0.0008,-0.0052,-0.0061,-0.0065,-0.0092,-0.0086,-0.0087,-0.0089,-0.0089,-0.0127,-0.0126,0,0,0,0,0,0,0.0048,0.0038,0.0037,0.0035,0.0035,0.001,0.0007,0.0011,-0.0025,-0.003,-0.0007,-0.0009,-0.0058,-0.0062,-0.0067,-0.0063,-0.0088,-0.009,-0.0091,-0.0127,-0.0127,-0.0126,0,0,0,0,0,0,0.0049,0.0049,0.0039,0.0036,0.0033,0.001,0.0015,0.0011,0.0004,-0.0027,-0.0033,-0.0009,-0.0058,-0.0064,-0.0078,-0.0066,-0.009,-0.0092,-0.0127,-0.0127,-0.0126,-0.0064,0,0,0,0,0,0,0.0049,0.005,0.0057,0.0037,0.0034,0.0033,0.0016,0.001,0.0004,0.0001,-0.0031,-0.0036,-0.0059,-0.0075,-0.008,-0.0069,-0.0094,-0.0127,-0.0127,-0.0127,-0.0066,-0.0061,-0.0057,0,0,0,0,0,0.0049,0.0061,0.0057,0.0057,0.0045,0.0034,0.003,0.0011,0.0004,0.0003,-0.0017,-0.0035,-0.0076,-0.0076,-0.0082,-0.0071,-0.0127,-0.0127,-0.0127,-0.0068,-0.0062,-0.0057,0,0,0,0,0,0,0.0062,0.0058,0.0054,0.0064,0.0052,0.0029,0.003,0.0016,-0.0,-0.0,-0.0032,-0.0039,-0.0046,-0.007,-0.0068,-0.0083,-0.0105,-0.0106,-0.0059,-0.0054,-0.0049,-0.0037,-0.0095,0,0,0,0,0,0.0071,0.008,0.0067,0.0075,0.0073,0.0053,0.0047,0.0035,0.0018,0.0011,-0.0012,-0.0034,-0.005,-0.0059,-0.0079,-0.0086,-0.0123,-0.0085,-0.008,-0.0076,-0.0071,-0.0117,-0.0116,-0.0125,-0.0125,-0.0125,0,0,0.0077,0.0078,0.0082,0.0079,0.007,0.0076,0.0049,0.0046,0.0052,0.0008,0.0008,-0.0019,-0.0049,-0.0055,-0.0061,-0.0072,-0.0095,-0.0076,-0.0072,-0.0069,-0.0117,-0.0116,-0.0115,-0.0125,-0.0125,-0.0125,0,0,0.0099,0.0098,0.0114,0.0111,0.0106,0.0095,0.0097,0.0078,0.0072,0.0067,0.0039,0.0016,-0.0006,-0.0028,-0.0041,-0.0026,-0.007,-0.003,0.0003,-0.0041,-0.0041,-0.0041,-0.0092,-0.0097,-0.0028,-0.0028,-0.0028,0,0.0109,0.0129,0.0115,0.0131,0.0137,0.0109,0.0127,0.0116,0.0094,0.0094,0.0077,0.0035,0.0008,-0.0003,0.0003,-0.0015,-0.0049,-0.0011,-0.0035,-0.0036,-0.0037,-0.0089,-0.0096,-0.0025,-0.0025,-0.0026,-0.0026,0,0.0141,0.0159,0.0169,0.0184,0.0186,0.0195,0.0184,0.0182,0.0171,0.0156,0.0141,0.0094,0.0069,0.0056,0.0037,0.0019,-0.0006,-0.0023,-0.0045,-0.0032,-0.0088,-0.0096,-0.002,-0.0022,-0.0022,-0.0023,0,0,0.0162,0.0188,0.0193,0.0214,0.0217,0.0224,0.0239,0.0242,0.0253,0.0219,0.0219,0.0182,0.0148,0.0131,0.0092,0.0053,0.0012,0.0019,0.0016,-0.0025,-0.0091,-0.009,-0.0099,-0.0007,-0.0008,-0.0009,-0.0129,0,0.0194,0.0242,0.0243,0.0286,0.0309,0.0298,0.0316,0.0314,0.0301,0.029,0.0236,0.0221,0.018,0.0167,0.0121,0.004,-0.0005,0.0046,-0.0103,-0.0107,-0.0103,-0.0106,-0.0011,-0.0135,-0.0137,-0.0138,-0.0139,0,0.0225,0.0258,0.0309,0.0349,0.0359,0.0377,0.0403,0.0417,0.0395,0.0383,0.0348,0.0298,0.0239,0.02,0.0065,0.01,0.0015,-0.0055,-0.0062,-0.0085,-0.0119,-0.0152,-0.0154,-0.0153,-0.0152,-0.0151,-0.015,0,0.0253,0.0302,0.0351,0.0364,0.0401,0.0424,0.0444,0.0445,0.0472,0.0439,0.0438,0.0352,0.0311,0.0195,0.0055,0.0059,-0.0104,-0.0121,-0.0205,-0.0207,-0.02,-0.0199,-0.0217,-0.0217,-0.0217,-0.0216,-0.0216,0,0.0285,0.0324,0.037,0.0397,0.0461,0.0469,0.0526,0.053,0.054,0.0571,0.049,0.0475,0.0309,0.0198,0.0066,-0.0093,-0.01,-0.02,-0.0235,-0.0172,-0.0166,-0.0207,-0.0204,-0.0221,-0.022,-0.0219,-0.0218,0,0.0304,0.0334,0.0393,0.0449,0.0477,0.0522,0.0596,0.0633,0.0633,0.0665,0.0659,0.0562,0.0415,0.0237,0.0034,-0.007,-0.0228,-0.0283,-0.0208,-0.0236,-0.0308,-0.03,-0.039,-0.0391,-0.0392,-0.0392,-0.0393,0,0.0318,0.0351,0.0435,0.0485,0.0516,0.0589,0.0647,0.0681,0.0727,0.0721,0.0737,0.0606,0.0518,0.0234,0.0038,-0.0227,-0.0258,-0.0344,-0.032,-0.03,-0.0325,-0.0316,-0.0308,-0.0394,-0.0394,-0.0394,-0.0395,0,0.0343,0.037,0.0425,0.0529,0.0602,0.0692,0.0773,0.0814,0.0853,0.0844,0.0807,0.0657,0.0482,0.0249,0.0038,-0.0148,-0.029,-0.0352,-0.0352,-0.0331,-0.0306,-0.0328,-0.0319,-0.0397,-0.0397,-0.0397,-0.0396,0,0.0363,0.0402,0.0478,0.0574,0.0673,0.0774,0.081,0.0866,0.091,0.0901,0.0881,0.0691,0.0576,0.0289,0.0098,-0.0091,-0.0137,-0.0188,-0.0197,-0.0197,-0.0104,-0.0041,-0.008,0,0,0,0,0,0.0384,0.0439,0.0521,0.0632,0.073,0.0794,0.0893,0.0921,0.095,0.0942,0.0921,0.0763,0.0476,0.0343,0.0156,0.0067,-0.0183,-0.0159,-0.0248,-0.0411,-0.0408,-0.0331,0,0,0,0,0,0,0.0402,0.0477,0.0522,0.0669,0.075,0.0867,0.0933,0.0952,0.0952,0.0942,0.0792,0.0717,0.0433,0.0581,0.0151,0.0091,0.001,-0.0298,-0.0302,-0.0413,-0.041,-0.0408,-0.0328,0,0,0,0,0]}]]